Indian Springs, NV

2:57 AM PDT on September 22, 2017 (GMT -0700)
Indian Springs Air Force Auxiliary

Weather History for KINS - May, 2013

Change the Weather History Date:

Sunday, May 5, 2013

  Actual Average (KDRA) Record (KDRA)
Temperature  
Mean Temperature 68 °F -  
Max Temperature 77 °F 78 °F 95 °F (1989)
Min Temperature 58 °F 50 °F 34 °F (1988)
Cooling Degree Days 2    
Growing Degree Days 18 (Base 50)    
Moisture  
Dew Point 20 °F    
Average Humidity 15    
Maximum Humidity 26    
Minimum Humidity 7    
Precipitation  
Precipitation 0.00 in - - ()
Sea Level Pressure  
Sea Level Pressure 29.76 in    
Wind  
Wind Speed 10 mph (SSE)    
Max Wind Speed 26 mph    
Max Gust Speed 41 mph    
Visibility 10 miles    
Events      
Averages and records for this station are not official NWS values.
T = Trace of Precipitation, MM = Missing Value Source: NWS Daily Summary

Daily Weather History Graph

Daily Weather History Graph

Search for Another Location

Airport or City:

Trip Planner

Search our weather history database for the weather conditions in past years. The results will help you decide how hot, cold, wet, or windy it might be!

Date:

Astronomy

May. 05, 2013 Rise Set
Actual Time 5:44 AM PDT 7:34 PM PDT
Civil Twilight 5:16 AM PDT 8:02 PM PDT
Nautical Twilight 4:42 AM PDT 8:36 PM PDT
Astronomical Twilight 4:06 AM PDT 9:13 PM PDT
Moon 3:10 AM PDT (5/5) 3:44 PM PDT (5/5)
Length of Visible Light 14h 46m
Length of Day
13h 50m
Waning Crescent, 17% of the Moon is Illuminated
May 5
Waning Crescent
May 9
New
May 17
First Quarter
May 24
Full
May 31
Last Quarter

Hourly Weather History & Observations

Time (PDT) Temp. Dew Point Humidity Pressure Visibility Wind Dir Wind Speed Gust Speed Precip Events Conditions
12:58 AM 68.7 °F 19.6 °F 15% 29.69 in 10.0 mi NE 8.1 mph - N/A   Clear
1:58 AM 66.4 °F 18.1 °F 16% 29.69 in 10.0 mi ENE 4.6 mph - N/A   Clear
2:58 AM 64.4 °F 18.9 °F 17% 29.69 in 10.0 mi NNW 3.5 mph - N/A   Clear
3:58 AM 63.0 °F 19.0 °F 18% 29.69 in 10.0 mi WNW 4.6 mph - N/A   Clear
4:58 AM 58.5 °F 18.3 °F 21% 29.70 in 10.0 mi WSW 5.8 mph - N/A   Clear
5:58 AM 61.0 °F 19.9 °F 21% 29.72 in 10.0 mi Calm Calm - N/A   Clear
6:58 AM 59.7 °F 20.3 °F 22% 29.74 in 10.0 mi Calm Calm - N/A   Clear
7:58 AM 66.0 °F 20.7 °F 18% 29.75 in 10.0 mi North 2.3 mph - N/A   Clear
8:58 AM 70.0 °F 20.3 °F 15% 29.76 in 10.0 mi NE 3.5 mph - N/A   Clear
9:58 AM 73.2 °F 19.9 °F 13% 29.78 in 10.0 mi South 8.1 mph - N/A   Mostly Cloudy
10:38 AM 73.4 °F 19.4 °F 13% 29.78 in 10.0 mi SE 12.7 mph - N/A   Scattered Clouds
10:58 AM 74.3 °F 19.0 °F 12% 29.78 in 10.0 mi East 18.4 mph - N/A   Mostly Cloudy
11:48 AM 77.0 °F 12.2 °F 9% 29.77 in 10.0 mi East 17.3 mph 21.9 mph N/A   Partly Cloudy
11:58 AM 77.0 °F 13.3 °F 9% 29.77 in 10.0 mi East 24.2 mph 27.6 mph N/A   Scattered Clouds
12:16 PM 77.0 °F 14.0 °F 9% 29.76 in 10.0 mi SE 20.7 mph 31.1 mph N/A   Mostly Cloudy
12:58 PM 77.0 °F 11.7 °F 8% 29.76 in 10.0 mi SE 24.2 mph 36.8 mph N/A   Mostly Cloudy
1:58 PM 77.7 °F 9.3 °F 7% 29.76 in 10.0 mi SE 23.0 mph 33.4 mph N/A   Mostly Cloudy
3:15 PM 75.2 °F 21.2 °F 13% 29.77 in 10.0 mi SSE 20.7 mph 32.2 mph N/A   Mostly Cloudy
3:24 PM 75.2 °F 21.2 °F 13% 29.78 in 10.0 mi South 24.2 mph 41.4 mph N/A   Mostly Cloudy
3:25 PM 75.2 °F 21.2 °F 13% 29.78 in 10.0 mi South 26.5 mph 41.4 mph N/A   Mostly Cloudy
3:28 PM 75.2 °F 21.2 °F 13% 29.79 in 10.0 mi SSW 17.3 mph 41.4 mph N/A   Mostly Cloudy
3:31 PM 73.4 °F 21.2 °F 14% 29.79 in 10.0 mi SSE 18.4 mph 39.1 mph N/A   Mostly Cloudy
3:32 PM 73.4 °F 21.2 °F 14% 29.79 in 10.0 mi SE 18.4 mph 32.2 mph N/A   Scattered Clouds
3:58 PM 73.4 °F 21.4 °F 14% 29.79 in 10.0 mi ESE 11.5 mph 18.4 mph N/A   Mostly Cloudy
4:58 PM 72.7 °F 18.5 °F 13% 29.79 in 10.0 mi ESE 15.0 mph - N/A   Scattered Clouds
4:59 PM 73.4 °F 17.6 °F 12% 29.79 in 10.0 mi SE 13.8 mph - N/A   Scattered Clouds
5:58 PM 73.2 °F 18.1 °F 12% 29.76 in 10.0 mi ENE 11.5 mph - N/A   Overcast
6:58 PM 71.2 °F 18.3 °F 13% 29.76 in 10.0 mi WSW 11.5 mph - N/A   Overcast
7:58 PM 69.8 °F 19.9 °F 15% 29.78 in 10.0 mi West 10.4 mph - N/A   Overcast
8:58 PM 68.0 °F 28.0 °F 22% 29.80 in 10.0 mi West 11.5 mph - N/A   Overcast
9:58 PM 66.2 °F 28.4 °F 24% 29.81 in 10.0 mi West 8.1 mph - N/A   Partly Cloudy
10:58 PM 65.3 °F 27.9 °F 24% 29.81 in 10.0 mi SW 4.6 mph - N/A   Partly Cloudy
11:58 PM 62.8 °F 26.8 °F 26% 29.81 in 10.0 mi WSW 2.3 mph - N/A   Clear